Tracking 31030 objects as of 15-Jul-2025
HD Live streaming from Space Station
objects crossing your sky now

STARLINK-32689

Track STARLINK-32689 now!
10-day predictions
STARLINK-32689 is classified as:


NORAD ID: 62440
Int'l Code: 2024-251J
Perigee: 481.8 km
Apogee: 483.0 km
Inclination: 53.2 °
Period: 94.1 minutes
Semi major axis: 6853 km
RCS: Unknown
Launch date: December 29, 2024
Source: United States (US)
Launch site: AIR FORCE WESTERN TEST RANGE (AFWTR)
Your satellite tracking list
Your tracking list is empty




NASA's NSSDC Master Catalog

Two Line Element Set (TLE):
1 62440U 24251J   25195.75133374  .00010949  00000-0  38129-3 0  9994
2 62440  53.1587   0.1744 0000868  85.4313 274.6787 15.30197441 31526
Source of the keplerian elements: AFSPC